Regional Weather Roundup
Issued by NWS Midland/Odessa, TX

Skip options and go directly to product.
Home | Oldest Version | Previous Version | Current Version | All | Text Only | Save Text | Print | Product List | Glossary Off

Skip product version selection by date and time.   

904
ASUS44 KMAF 201210
RWRMAF
MIDLAND AREA WEATHER ROUNDUP
NATIONAL WEATHER SERVICE MIDLAND TX
600 AM CST SAT DEC 20 2014

...IN SOUTHWEST TEXAS AND SOUTHEAST NEW MEXICO...

CITY           SKY/WX    TMP DP  RH WIND       PRES   REMARKS
ALPINE         PTCLDY    34  28  78 SW10      30.18F WCI  26
ANDREWS        FOG       36  36 100 SE5       30.14S VSB 1/4 WCI  32
ARTESIA        PTCLDY    28  25  86 CALM      30.12S
BIG SPRING     CLOUDY    33  32  95 CALM      30.18S
CARLSBAD       PTCLDY    28  22  78 NW6       30.10S WCI  22
DRYDEN           N/A     48  45  89 SE3       30.13F
FORT STOCKTON  CLEAR     38  32  79 SW8       30.13S WCI  32
GUAD PASS      NOT AVBL
HOBBS          FOG       36  36 100 E3        30.12F VSB 1/4
MARFA          PTCLDY    21  18  86 N7        30.15S WCI  13
MIDLAND AIRPK  FOG       37  37 100 E3        30.15S VSB 1/4
MIDLAND INTL   FOG       36  35  96 SE5       30.13F VSB 1/4 WCI  32
ODESSA         FOG       36  35  96 SE6       30.13F VSB 1/4 WCI  31
PECOS          CLEAR     29  26  88 CALM      30.14R
PRESIDIO       FAIR      39  30  70 CALM      30.13S
SEMINOLE       FOG       37  37 100 CALM      30.14S VSB 1/2
SNYDER         CLOUDY    41  37  84 CALM      30.17F
WINK           CLOUDY    29  26  89 N3        30.12R FOG
$$
...OTHER STATIONS IN TEXAS...

CITY           SKY/WX    TMP DP  RH WIND       PRES   REMARKS
ABILENE        CLOUDY    44  38  79 NW6       30.19S
AMARILLO       CLOUDY    33  33 100 S13       30.10S FOG     WCI  24
AUSTIN         CLOUDY    49  45  86 N10       30.19R
BROWNSVILLE    CLOUDY    60  58  92 N14G20    30.09F
CORPUS CHRISTI CLOUDY    52  48  86 N14       30.17R
DALLAS FTW     CLOUDY    45  42  89 NE5       30.21R
DEL RIO        CLOUDY    52  47  83 SE10      30.16R
EL PASO        PTCLDY    31  24  75 N5        30.13S WCI  26
HOUSTON INT    CLOUDY    51  48  89 NE9       30.16R
LUBBOCK        CLOUDY    37  35  92 SW10      30.13S FOG     WCI  30
SAN ANGELO     CLOUDY    42  39  89 CALM      30.16R
SAN ANTONIO    CLOUDY    48  43  82 NE5       30.20R
WACO           CLOUDY    47  45  93 N6        30.21S
WICHITA FALLS  NOT AVBL
$$
...OTHER LOCATIONS IN NEW MEXICO...

CITY           SKY/WX    TMP DP  RH WIND       PRES   REMARKS
ALAMAGORDO     CLEAR     28  25  86 CALM      30.15S
ALBUQUERQUE    PTCLDY    28  23  81 SW3       30.17F
CANNON AFB     CLEAR     21  20  94 CALM      30.07F FOG
CLOVIS         CLOUDY    25  21  86 S3        30.08S VSB 1/4
HOLLOMAN AFB   CLEAR     26  23  89 CALM      30.14S
ROSWELL        MOCLDY    29  21  72 W5        30.11F WCI  24
RUIDOSO        CLEAR     30  18  59 NW13G22   30.11S WCI  20
SANTA FE       PTCLDY    24  17  74 N15       30.10F WCI  11
TRUTH OR CONSE CLEAR     28  21  75 CALM      30.15F
TUCUMCARI      FOG       21  19  92 NW7       30.06S VSB 1/4 WCI  12
$$

USA.gov is the U.S. government's official web portal to all federal, state and local government web resources and services.